CAPE
0 0 0 0 0 0 0 0 0 0 0 0 0 0 0 0 0 0 0 0 0 0 0 0 0 0 0 0 0 0 0 0 0 0 0 1 0 3 2 1 0 0 15 3
0 0 0 0 0 0 0 0 0 0 0 0 0 0 0 0 0 0 0 0 0 0 0 0 0 0 0 0 0 0 0 0 0 0 0 1 2 2 2 1 0 1 0 0
0 0 0 0 0 0 0 0 0 0 0 0 0 0 0 0 0 0 0 0 0 0 0 0 0 0 0 0 0 0 0 3 3 0 1 1 0 1 4 2 0 0 0 4
0 0 0 0 0 0 0 0 0 0 0 0 0 0 0 0 0 0 0 0 0 0 0 0 0 0 0 0 0 0 0 5 4 10 2 1 2 5 1 1 3 4 0 1
0 0 0 0 0 0 0 0 0 0 0 0 0 0 0 0 0 0 0 0 0 0 0 0 0 0 0 0 0 0 0 0 4 3 6 3 3 4 1 0 2 0 1 2
0 0 0 0 0 0 0 0 0 0 0 0 0 0 0 0 0 0 0 0 0 0 0 0 0 0 0 0 0 0 0 5 6 2 1 3 0 1 1 1 1 2 1 2
0 0 0 0 0 0 0 0 0 0 0 0 0 0 0 0 0 0 0 0 0 0 0 0 0 0 1 0 0 0 9 2 9 6 0 0 0 2 2 5 0 1 5 6
0 0 0 0 0 0 0 0 0 0 0 0 0 0 0 0 0 0 0 0 0 0 0 0 4 10 11 0 0 0 0 0 4 10 0 0 0 0 0 0 3 2 6 6
0 0 0 0 0 0 0 0 0 0 0 0 0 0 0 0 0 0 0 0 0 0 0 0 0 0 0 0 2 0 16 2 3 0 14 0 2 2 2 3 2 3 0 5
0 0 0 0 0 0 0 0 0 0 0 0 0 0 0 0 0 0 0 0 0 0 0 0 0 0 0 1 12 6 9 17 0 0 2 2 2 0 0 2 2 1 0 9
0 0 0 0 0 0 0 0 0 0 0 0 0 0 0 0 0 0 0 0 0 0 0 0 0 0 0 2 3 4 3 1 0 0 4 0 2 2 3 1 3 1 2 11
0 0 0 0 0 0 0 0 0 0 0 0 0 0 0 0 0 0 0 0 0 0 0 0 0 0 2 8 3 3 1 0 0 3 7 6 5 1 2 0 0 0 11 7
0 0 0 0 0 0 0 0 0 0 0 0 0 0 0 0 0 0 0 0 0 0 0 0 0 2 6 8 4 12 7 0 2 0 0 0 2 0 1 2 4 7 9 3
0 0 0 0 0 0 0 0 0 0 0 0 0 0 0 0 0 0 0 0 0 0 0 1 0 1 4 2 3 0 1 0 1 1 2 0 1 0 2 6 4 3 1 0
0 0 0 0 0 0 0 0 0 0 0 0 0 0 0 0 0 0 0 0 0 0 1 1 0 0 6 0 3 1 1 1 0 2 2 4 0 2 3 3 2 0 0 0
0 0 0 0 0 0 0 0 0 0 0 0 0 0 0 0 0 0 0 0 0 0 0 2 1 2 6 1 0 2 2 3 2 0 0 2 0 0 1 3 0 0 0 0
0 0 0 0 0 0 0 0 0 0 0 0 0 0 0 0 0 0 0 0 0 0 0 3 3 1 4 1 0 0 3 2 0 0 1 4 5 3 0 0 0 0 0 0
0 0 0 0 0 0 0 0 0 0 0 0 0 0 0 0 0 0 0 0 0 0 1 1 2 2 8 0 2 2 2 2 1 0 4 1 6 1 0 1 6 2 0 0
0 0 0 0 0 0 0 0 0 0 0 0 0 0 0 0 0 0 0 0 0 0 1 2 1 5 2 2 0 1 1 1 1 5 4 4 1 1 0 0 0 0 0 0
0 0 0 0 0 0 0 0 0 0 0 0 0 0 0 0 0 0 0 0 0 0 0 1 0 6 3 0 0 1 1 1 0 1 2 1 3 4 1 0 0 0 0 0
0 0 0 0 0 0 0 0 0 0 0 0 0 0 0 0 0 0 0 0 0 0 0 1 1 1 2 0 0 0 2 1 0 0 0 2 2 1 3 0 0 0 0 0
0 0 0 0 0 0 0 0 0 0 0 0 0 0 0 0 0 0 0 0 0 0 0 0 1 2 3 0 0 0 0 0 0 0 0 0 0 0 2 1 0 0 0 0
0 0 0 0 0 0 0 0 0 0 0 0 0 0 0 0 0 0 0 0 0 0 0 0 2 0 4 0 0 0 0 0 0 0 0 0 0 0 0 0 0 0 0 0
0 0 0 0 0 0 0 0 0 0 0 0 0 0 0 0 0 0 0 0 0 0 0 0 0 0 0 1 0 0 0 0 0 0 0 0 0 0 0 0 0 0 0 0
0 0 0 0 0 0 0 0 0 0 0 0 0 0 0 0 0 0 0 0 0 0 0 0 0 0 0 0 0 0 0 0 0 0 1 2 0 0 0 0 0 0 0 0
0 0 0 0 0 0 0 0 0 0 0 0 0 0 0 0 0 0 0 0 0 0 0 0 0 0 0 0 0 0 0 0 0 0 0 0 3 2 3 2 0 0 0 0
0 0 0 0 0 0 0 0 0 0 0 0 0 0 0 0 0 0 0 0 0 0 0 0 0 0 0 0 0 0 0 0 0 0 0 0 0 1 4 0 0 0 0 0
CIN
0 0 0 0 0 0 0 0 0 0 0 0 0 0 0 0 0 0 0 0 0 0 0 0 0 0 0 0 0 0 0 0 0 0 0 -1 -1 0 0 0 0 0 0 -1
0 0 0 0 0 0 0 0 0 0 0 0 0 0 0 0 0 0 0 0 0 0 0 0 0 0 0 0 0 0 0 0 0 0 0 -4 0 0 0 0 0 0 0 -1
0 0 0 0 0 0 0 0 0 0 0 0 0 0 0 0 0 0 0 0 0 0 0 0 0 0 0 0 0 0 0 -1 -2 -1 -1 0 0 0 -1 -3 -1 0 0 -2
0 0 0 0 0 0 0 0 0 0 0 0 0 0 0 0 0 0 0 0 0 0 0 0 0 0 0 0 0 0 0 -1 -2 -1 0 0 0 -1 0 0 -1 -1 0 -1
0 0 0 0 0 0 0 0 0 0 0 0 0 0 0 0 0 0 0 0 0 0 0 0 0 0 0 0 0 0 0 -1 -2 0 -1 0 0 0 0 -1 -1 -1 -1 -1
0 0 0 0 0 0 0 0 0 0 0 0 0 0 0 0 0 0 0 0 0 0 0 0 0 0 0 0 0 0 -1 -2 -2 0 0 0 0 0 -1 0 -1 -2 -2 -2
0 0 0 0 0 0 0 0 0 0 0 0 0 0 0 0 0 0 0 0 0 0 0 0 0 -1 -3 0 0 0 -2 -5 -3 -6 0 0 0 0 0 -3 0 -2 -3 -2
0 0 0 0 0 0 0 0 0 0 0 0 0 0 0 0 0 0 0 0 0 0 0 -2 -2 -3 -3 0 0 0 -1 -1 -16 -9 0 0 0 0 0 0 0 -1 -2 0
0 0 0 0 0 0 0 0 0 0 0 0 0 0 0 0 0 0 0 0 0 0 0 0 0 0 0 -2 -1 -1 -2 -4 0 -1 -13 -1 0 0 0 0 -6 -1 0 -1
0 0 0 0 0 0 0 0 0 0 0 0 0 0 0 0 0 0 0 0 0 0 0 0 0 0 0 -4 -3 -3 -3 -1 0 0 0 0 -1 0 0 -1 0 0 -1 -1
0 0 0 0 0 0 0 0 0 0 0 0 0 0 0 0 0 0 0 0 0 0 0 0 0 0 0 -2 -6 -2 0 0 0 0 0 0 0 0 0 -1 0 -1 -2 -1
0 0 0 0 0 0 0 0 0 0 0 0 0 0 0 0 0 0 0 0 0 0 0 0 0 -3 -3 -2 -1 -2 -1 0 0 0 0 0 0 0 -1 0 0 -1 -1 -1
0 0 0 0 0 0 0 0 0 0 0 0 0 0 0 0 0 0 0 0 0 0 0 0 0 0 -2 -1 0 0 0 0 0 0 0 0 0 -1 -1 -2 -1 -1 -1 -1
0 0 0 0 0 0 0 0 0 0 0 0 0 0 0 0 0 0 0 0 0 0 -3 -2 -3 -1 -1 -1 0 0 0 0 0 0 0 0 -2 -3 -3 -1 -1 -1 -1 0
0 0 0 0 0 0 0 0 0 0 0 0 0 0 0 0 0 0 0 0 0 0 -2 -2 -1 -1 -1 0 0 0 0 0 0 0 0 0 0 -1 -1 -1 -1 -1 0 0
0 0 0 0 0 0 0 0 0 0 0 0 0 0 0 0 0 0 0 0 0 0 0 -1 -1 0 0 -1 0 0 0 0 0 0 0 0 -1 0 -1 -1 0 0 0 0
0 0 0 0 0 0 0 0 0 0 0 0 0 0 0 0 0 0 0 0 0 0 0 -1 -1 -1 -1 0 0 0 0 0 0 0 0 -1 -2 -1 0 0 0 0 0 0
0 0 0 0 0 0 0 0 0 0 0 0 0 0 0 0 0 0 0 0 0 0 -1 -2 -1 -1 0 0 0 0 0 0 0 0 -3 -6 -1 -1 0 -1 -2 -1 0 0
0 0 0 0 0 0 0 0 0 0 0 0 0 0 0 0 0 0 0 0 0 0 -2 -1 -3 0 0 0 0 0 0 0 -1 0 0 0 -1 -1 0 0 0 0 0 0
0 0 0 0 0 0 0 0 0 0 0 0 0 0 0 0 0 0 0 0 0 0 0 -1 -1 0 0 0 0 0 0 -1 -1 -1 0 0 0 -8 0 0 0 0 0 0
0 0 0 0 0 0 0 0 0 0 0 0 0 0 0 0 0 0 0 0 0 0 0 0 -1 -1 0 0 0 0 0 -1 0 0 0 0 0 0 0 0 0 0 0 0
0 0 0 0 0 0 0 0 0 0 0 0 0 0 0 0 0 0 0 0 0 0 0 0 0 -1 -1 0 0 0 0 0 0 0 0 0 0 0 0 -1 0 0 0 0
0 0 0 0 0 0 0 0 0 0 0 0 0 0 0 0 0 0 0 0 0 0 0 0 -1 -1 -1 0 0 0 0 0 0 0 0 0 0 0 0 0 -1 0 0 0
0 0 0 0 0 0 0 0 0 0 0 0 0 0 0 0 0 0 0 0 0 0 0 0 0 0 0 -1 0 0 0 0 0 0 0 0 0 0 0 0 0 0 0 0
0 0 0 0 0 0 0 0 0 0 0 0 0 0 0 0 0 0 0 0 0 0 0 0 0 0 0 0 0 0 0 0 0 0 -1 -1 -1 0 0 0 0 0 0 0
0 0 0 0 0 0 0 0 0 0 0 0 0 0 0 0 0 0 0 0 0 0 0 0 0 0 0 0 0 0 0 0 0 0 0 -1 -1 -1 -1 -1 0 0 0 0
0 0 0 0 0 0 0 0 0 0 0 0 0 0 0 0 0 0 0 0 0 0 0 0 0 0 0 0 0 0 0 0 0 0 0 0 0 -2 -1 -2 -1 0 0 0
Wind_Speed
27 26 25 24 24 22 20 17 16 14 12 7 8 9 8 9 11 12 12 13 13 13 14 16 17 18 20 23 22 22 21 21 23 24 22 5 24 7 8 15 13 14 12 21
29 28 26 26 26 25 19 16 11 11 13 7 7 7 9 10 11 13 12 12 14 13 14 16 17 17 19 23 22 21 20 19 19 17 17 18 20 9 11 19 19 20 20 20
30 28 27 27 26 25 19 17 8 9 13 8 10 10 9 10 12 13 13 13 13 14 17 17 15 17 19 21 22 18 18 20 21 21 20 17 18 14 17 19 21 23 24 23
31 29 28 27 26 25 18 16 13 12 5 8 8 9 10 11 12 13 14 14 14 15 15 17 17 17 17 19 20 18 16 17 18 20 21 19 16 16 17 19 18 20 22 25
31 30 28 27 26 22 19 14 9 4 6 9 9 9 10 11 12 15 15 12 15 16 17 20 17 17 20 19 21 18 15 14 13 17 19 17 13 14 14 16 20 22 23 26
32 29 28 28 27 24 18 13 9 5 4 6 7 10 11 11 13 16 14 14 16 18 19 20 20 20 20 20 21 20 16 9 7 9 10 12 10 9 12 18 14 15 25 24
32 30 30 29 28 26 17 9 9 3 4 6 7 12 14 13 15 13 14 17 17 18 18 18 19 19 21 22 24 21 17 8 6 5 6 6 10 10 10 6 13 7 18 20
31 30 30 29 28 24 16 15 7 2 10 12 12 15 16 17 18 16 17 20 19 17 18 17 20 19 19 22 24 23 15 10 6 3 6 9 9 11 14 9 7 8 11 8
31 30 30 27 25 20 13 10 12 11 10 7 12 14 15 15 15 17 20 21 19 18 19 21 25 26 25 25 23 21 13 13 13 20 17 17 12 13 16 16 19 4 8 8
31 30 29 26 20 21 13 9 11 2 12 6 10 10 12 12 15 18 19 20 20 18 23 25 27 27 23 26 23 18 11 15 17 18 18 14 13 17 19 16 14 7 7 9
30 27 25 21 17 13 8 6 8 6 9 8 9 9 12 12 15 18 19 19 21 22 26 25 25 27 23 24 25 8 13 21 19 18 18 16 12 18 17 14 12 10 8 9
26 24 22 18 15 10 6 6 6 8 10 17 15 15 12 9 8 21 22 23 22 23 23 24 25 29 28 27 24 7 17 18 16 13 15 13 12 14 14 14 12 11 9 9
24 22 19 17 17 13 8 16 22 22 24 15 9 9 11 11 11 22 24 26 26 29 29 30 30 32 22 24 17 21 16 10 14 14 11 12 12 14 15 14 14 13 11 10
23 20 18 15 14 20 17 8 4 6 9 6 9 10 12 13 20 25 29 31 31 30 30 32 29 27 21 22 22 19 16 14 13 15 12 12 12 12 14 16 16 15 13 11
20 18 18 18 17 14 9 4 2 8 5 4 13 12 10 13 19 25 28 29 28 29 31 31 31 23 22 21 20 15 12 14 13 14 10 12 14 15 18 18 17 17 15 13
20 20 20 18 17 13 12 6 6 18 24 8 5 4 7 12 18 23 26 29 29 29 28 27 23 16 14 15 17 9 8 11 17 15 11 14 16 17 18 18 18 17 16 15
22 20 19 18 14 12 14 9 7 3 6 6 7 8 7 7 15 20 24 25 26 27 27 28 26 6 13 10 6 7 8 9 12 11 10 10 15 15 16 16 16 15 14 14
22 19 17 15 13 7 3 5 4 11 5 6 7 5 5 12 16 19 21 23 24 25 25 24 24 6 8 9 7 9 8 9 11 8 9 8 14 15 14 14 12 13 13 14
22 18 14 11 10 11 9 10 7 6 8 8 6 9 4 5 9 17 21 21 23 21 24 23 21 20 20 11 11 10 9 9 10 13 14 13 16 15 14 14 13 14 14 14
21 19 14 13 12 11 12 11 10 11 11 10 5 4 6 10 9 11 18 18 20 21 21 21 23 23 21 6 12 13 11 12 15 16 16 17 16 16 16 15 15 14 15 15
20 17 15 12 14 13 12 10 10 10 9 8 6 6 10 8 7 10 13 16 17 18 19 18 19 20 20 20 18 14 15 16 17 17 18 17 19 17 17 17 16 16 16 16
17 11 12 13 14 12 11 11 9 10 8 4 7 10 4 6 9 11 12 14 16 17 17 18 18 18 20 20 19 19 16 16 17 19 19 19 19 19 18 18 18 18 18 18
15 14 15 17 15 13 13 9 9 6 3 6 6 7 3 7 11 11 12 13 14 15 15 16 16 17 18 20 19 19 19 18 17 19 19 20 21 21 20 19 20 19 19 20
17 16 15 16 16 14 13 9 4 5 6 15 10 3 8 8 10 11 12 12 12 13 13 13 13 15 17 18 18 19 19 20 20 19 19 19 20 21 21 21 20 20 21 21
15 14 17 16 13 9 8 4 3 9 11 11 5 6 8 9 10 11 11 10 11 11 11 11 13 15 15 16 17 18 19 19 18 19 19 18 19 19 20 22 22 22 21 22
15 13 13 10 6 6 2 4 7 6 7 2 7 9 10 11 10 10 10 9 11 11 10 12 14 13 13 14 15 17 18 18 18 19 19 19 19 19 20 20 21 22 23 23
15 13 10 12 5 3 3 4 4 3 2 7 9 11 12 10 11 11 11 12 11 9 11 11 12 11 11 13 15 16 17 17 17 18 18 19 19 19 20 21 22 21 21 22
Wind_Direction
231 229 230 230 224 223 225 234 239 261 269 331 341 5 16 19 14 355 352 349 358 1 7 6 11 12 6 8 12 16 22 26 27 34 59 81 36 230 211 166 171 158 90 49
223 225 227 224 220 216 227 236 257 276 265 352 18 39 33 6 360 334 348 356 356 10 9 11 14 15 15 8 11 14 20 23 26 36 54 21 346 254 191 127 107 10 58 53
220 222 222 220 218 219 230 233 276 282 266 302 83 69 34 12 1 356 1 22 21 19 9 11 19 18 14 12 10 21 26 21 20 25 35 46 346 314 43 79 61 55 46 47
217 219 219 218 218 219 232 247 253 250 58 60 43 9 36 45 2 352 355 359 358 360 11 14 12 13 14 13 11 13 12 18 30 39 49 39 4 10 26 38 45 53 61 38
216 216 216 217 216 219 230 242 247 318 55 65 51 343 22 24 14 344 343 9 5 9 13 3 6 8 4 1 0 0 2 4 33 33 59 40 5 359 3 19 33 53 50 38
214 216 215 214 212 217 232 246 240 272 37 28 349 337 24 24 33 355 15 16 21 18 12 15 17 15 11 2 352 348 347 4 20 21 58 302 334 306 4 32 360 6 31 52
213 215 213 212 212 213 236 231 237 276 16 334 352 45 45 27 8 39 14 7 23 26 38 32 23 16 10 1 354 350 341 342 355 17 30 355 270 279 227 2 358 165 94 76
213 213 212 212 210 217 226 224 243 12 66 62 52 55 51 45 40 32 23 18 32 46 31 21 9 6 2 359 355 352 353 341 336 337 301 235 258 259 208 217 312 147 119 130
212 212 211 210 210 217 220 235 233 88 70 11 52 53 47 40 30 24 34 32 45 40 30 19 8 1 355 351 352 360 359 282 268 226 219 222 241 242 212 186 145 249 135 140
211 210 209 207 211 208 224 229 228 359 68 317 277 18 21 342 11 29 46 47 46 47 30 25 20 14 15 8 7 1 291 223 209 214 207 215 245 221 207 198 188 215 162 148
208 207 202 200 199 205 221 225 226 72 56 16 7 350 10 353 7 30 58 57 50 45 38 40 40 40 51 55 52 211 198 188 188 200 196 208 248 211 212 218 221 206 187 162
203 198 192 193 187 194 124 103 72 79 49 73 43 24 348 305 290 50 61 59 61 55 56 65 66 69 69 86 120 162 167 175 185 204 202 224 224 215 223 222 234 222 207 195
191 188 185 178 197 207 138 102 97 83 81 50 9 340 348 347 342 87 73 68 66 65 68 77 82 81 104 116 134 147 167 182 177 190 200 209 224 226 228 249 248 240 225 209
184 176 176 175 134 118 117 122 230 60 54 34 16 5 13 6 29 42 58 70 70 76 78 79 101 112 119 121 132 139 159 174 176 176 200 223 224 250 264 267 259 248 235 211
170 161 147 144 136 126 111 86 236 232 345 55 70 35 2 14 31 48 62 68 74 71 75 82 91 126 124 127 136 140 158 165 174 176 220 231 239 265 271 266 265 259 244 222
160 153 149 142 136 182 208 220 25 71 85 57 357 320 349 13 36 48 57 63 63 70 81 86 113 145 153 149 146 167 193 185 164 170 222 238 245 254 263 268 266 261 251 250
160 159 168 184 200 216 229 243 108 217 44 33 33 12 293 330 37 49 55 60 64 68 78 80 80 206 155 167 196 205 189 201 178 173 189 258 293 287 284 280 282 298 311 309
157 159 136 122 106 107 118 177 213 222 351 317 343 359 354 236 58 62 84 68 68 68 76 92 92 100 240 313 252 222 224 212 180 234 183 218 299 304 305 306 323 325 322 315
148 154 166 196 217 216 201 212 238 315 304 323 319 70 16 301 18 60 72 75 69 84 70 77 90 94 90 239 272 263 234 246 244 293 309 303 324 319 315 312 314 323 324 318
179 195 207 213 213 194 220 237 261 285 300 294 9 3 52 80 46 12 61 48 74 85 82 83 67 73 90 145 300 310 269 292 316 325 319 321 318 314 319 315 312 315 315 322
199 208 217 186 212 228 249 264 277 285 308 304 296 63 87 270 356 23 348 44 60 79 80 103 89 85 72 95 119 336 341 340 343 342 349 342 342 323 318 320 316 318 314 314
207 188 190 212 230 247 265 261 278 292 300 339 80 91 45 311 296 344 356 17 51 52 77 82 84 81 69 76 98 99 8 345 343 350 351 351 345 340 334 329 328 327 322 315
186 204 222 228 249 254 259 261 275 302 301 102 100 83 328 310 312 333 351 4 18 65 42 47 70 76 72 72 84 82 75 51 353 351 350 357 0 356 347 341 339 336 335 329
215 223 225 240 248 257 264 267 266 286 107 116 104 53 306 309 314 334 349 354 28 37 42 49 74 79 73 72 72 66 58 44 30 22 358 350 354 358 359 354 346 346 343 340
224 237 235 246 252 258 264 270 95 107 111 109 80 330 320 319 324 329 347 9 16 23 23 58 84 83 77 67 62 51 50 44 23 7 6 9 352 350 357 1 0 356 349 344
237 250 243 235 239 250 231 124 120 125 118 75 305 308 306 307 327 332 343 8 0 4 30 84 89 81 69 61 53 44 42 41 35 19 0 354 353 351 342 342 343 347 352 353
242 243 240 244 222 210 175 142 139 168 247 283 297 302 304 322 321 329 332 338 355 39 72 81 84 75 60 50 38 33 31 31 31 23 11 353 348 349 346 343 344 343 340 341